FW6321 Weather Reports


Display with metric or nautical units.
time (UTC)temp
F
wind
direction
speed
MPH
gust
MPH
rain 1hr
in
rain 24hr
in
rain mn
in
humidity
%
barometer
mb
20260507075200 54 19 4.0 8.0 0.00 0.00 0.00 81 1016.9
20260507074703 53 17 4.0 9.0 0.00 0.00 0.00 82 1016.9
20260507074202 53 287 4.0 9.0 0.00 0.00 0.00 83 1016.8
20260507073702 53 1 5.0 10.0 0.00 0.00 0.00 84 1016.8
20260507073201 53 18 4.0 10.0 0.00 0.00 0.00 85 1016.8
20260507072729 52 22 4.0 9.0 0.00 0.00 0.00 86 1016.8
20260507071702 52 343 4.0 9.0 0.00 0.00 0.00 87 1016.7
20260507071203 51 325 4.0 9.0 0.00 0.00 0.00 87 1016.7
20260507070822 51 33 3.0 7.0 0.00 0.00 0.00 88 1016.7
20260507070503 51 352 3.0 6.0 0.00 0.00 0.00 88 1016.7
20260507063703 50 325 5.0 8.0 0.00 0.00 0.00 90 1016.4
20260507063205 49 330 6.0 9.0 0.00 0.00 0.00 90 1016.4
20260507062702 49 319 5.0 9.0 0.00 0.00 0.00 90 1016.5
20260507062237 49 343 3.0 8.0 0.00 0.00 0.00 91 1016.5
20260507061202 48 330 5.0 9.0 0.00 0.00 0.00 92 1016.4
20260507060729 48 358 5.0 9.0 0.00 0.00 0.00 92 1016.3
20260507055701 47 352 4.0 9.0 0.00 0.00 0.00 93 1016.3
20260507055236 47 345 4.0 9.0 0.00 0.00 0.00 93 1016.2
20260507054201 46 320 3.0 7.0 0.00 0.00 0.00 94 1016.1
20260507053703 46 320 3.0 5.0 0.00 0.00 0.00 94 1016.1
20260507053201 46 330 3.0 6.0 0.00 0.00 0.00 94 1016.1
20260507052728 45 6 3.0 6.0 0.00 0.00 0.00 94 1016.1
20260507051700 45 352 3.0 6.0 0.00 0.00 0.00 94 1016.0
20260507051240 45 350 3.0 5.0 0.00 0.00 0.00 94 1015.9
20260507050203 45 319 3.0 7.0 0.00 0.00 0.00 94 1015.7
20260507045701 45 340 3.0 7.0 0.00 0.00 0.00 94 1015.7
20260507045202 45 325 3.0 5.0 0.00 0.00 0.00 94 1015.6
20260507044703 45 330 3.0 5.0 0.00 0.00 0.00 94 1015.6
20260507044203 45 335 3.0 5.0 0.00 0.00 0.00 94 1015.5
20260507043703 44 305 3.0 5.0 0.00 0.00 0.00 94 1015.5
20260507043203 44 330 3.0 5.0 0.00 0.00 0.00 94 1015.5
20260507042728 44 320 3.0 5.0 0.00 0.00 0.00 94 1015.5
20260507041705 44 325 2.0 4.0 0.00 0.00 0.00 93 1015.4
20260507041204 44 342 3.0 5.0 0.00 0.00 0.00 93 1015.4
20260507040703 44 335 3.0 5.0 0.00 0.00 0.00 93 1015.2
20260507040200 44 315 3.0 4.0 0.00 0.00 0.00 93 1015.3
20260507035703 44 6 3.0 4.0 0.00 0.00 0.00 93 1015.3
20260507035202 45 347 3.0 4.0 0.00 0.01 0.00 93 1015.3
20260507034659 45 321 3.0 4.0 0.00 0.01 0.00 93 1015.2
20260507034156 45 335 3.0 6.0 0.00 0.01 0.00 92 1015.2
20260507033656 45 325 3.0 6.0 0.00 0.01 0.00 92 1015.2
20260507033152 45 346 3.0 6.0 0.00 0.01 0.00 92 1015.2
20260507032653 45 330 3.0 6.0 0.00 0.01 0.00 92 1015.1
20260507032225 46 335 4.0 8.0 0.00 0.01 0.00 92 1015.1
20260507031148 46 319 3.0 5.0 0.00 0.01 0.00 91 1015.1
20260507030647 46 330 2.0 4.0 0.00 0.01 0.00 91 1015.1
20260507030143 46 339 3.0 5.0 0.00 0.01 0.00 91 1015.0
20260507025752 46 347 3.0 5.0 0.00 0.01 0.00 91 1014.9
20260507024141 46 335 3.0 5.0 0.00 0.01 0.00 89 1014.9
20260507023716 46 325 3.0 6.0 0.00 0.01 0.00 89 1014.9
20260507022638 46 341 4.0 7.0 0.00 0.01 0.00 89 1014.9
20260507022139 47 319 4.0 7.0 0.00 0.01 0.00 89 1014.9
20260507021706 47 347 4.0 8.0 0.00 0.01 0.00 88 1014.8
20260507020713 47 330 4.0 10.0 0.00 0.01 0.00 89 1014.7
20260507015637 47 16 5.0 9.0 0.00 0.01 0.00 90 1014.7
20260507015139 47 345 4.0 9.0 0.00 0.01 0.00 90 1014.6
20260507014637 47 0 4.0 9.0 0.00 0.01 0.00 90 1014.7
20260507014137 47 339 5.0 10.0 0.00 0.01 0.00 90 1014.6
20260507013634 47 353 5.0 10.0 0.00 0.01 0.00 91 1014.6
20260507013139 47 347 4.0 8.0 0.00 0.01 0.00 91 1014.6
20260507012636 47 330 4.0 9.0 0.00 0.01 0.00 90 1014.6
20260507012204 47 352 4.0 9.0 0.00 0.01 0.00 90 1014.6
20260507011136 48 7 5.0 9.0 0.00 0.01 0.00 90 1014.6
20260507010636 48 325 5.0 9.0 0.00 0.01 0.00 89 1014.6
20260507010133 48 325 5.0 10.0 0.00 0.01 0.00 89 1014.5
20260507005632 48 325 5.0 10.0 0.00 0.01 0.00 89 1014.5
20260507005134 49 325 5.0 10.0 0.00 0.01 0.00 89 1014.5
20260507004633 49 321 5.0 10.0 0.00 0.01 0.00 88 1014.4
20260507004204 49 359 5.0 11.0 0.00 0.01 0.00 88 1014.4
20260507003131 49 310 4.0 8.0 0.00 0.01 0.00 88 1014.3
20260507002629 49 16 5.0 10.0 0.00 0.01 0.00 88 1014.3
20260507002241 49 347 5.0 10.0 0.00 0.01 0.00 88 1014.2
20260507000629 49 335 5.0 10.0 0.00 0.01 0.00 87 1014.1
20260507000219 50 325 4.0 9.0 0.00 0.01 0.00 87 1014.2
20260506235130 50 330 5.0 11.0 0.00 0.01 0.00 86 1014.1
20260506234628 50 358 4.0 11.0 0.00 0.01 0.00 86 1014.1
20260506234128 50 330 4.0 9.0 0.00 0.01 0.00 86 1014.1
20260506233628 50 352 5.0 10.0 0.00 0.01 0.00 85 1014.0
20260506233128 50 352 5.0 10.0 0.00 0.01 0.00 85 1014.0
20260506232658 50 339 5.0 8.0 0.00 0.01 0.00 84 1013.9
20260506231629 51 303 5.0 9.0 0.00 0.01 0.00 84 1013.9
20260506231130 51 330 5.0 10.0 0.00 0.01 0.00 83 1013.8
20260506230631 51 330 5.0 10.0 0.00 0.01 0.00 83 1013.8
20260506230127 51 352 5.0 10.0 0.00 0.01 0.00 82 1013.8
20260506225701 51 330 5.0 10.0 0.00 0.01 0.00 82 1013.8
20260506224624 52 339 5.0 9.0 0.00 0.01 0.00 82 1013.8
20260506224126 52 339 5.0 10.0 0.00 0.01 0.00 81 1013.8
20260506223625 52 325 4.0 10.0 0.00 0.01 0.00 81 1013.8
20260506223124 52 325 4.0 8.0 0.00 0.01 0.00 80 1013.8
20260506222624 52 3 5.0 11.0 0.00 0.01 0.00 80 1013.8
20260506222128 52 330 6.0 11.0 0.00 0.01 0.00 79 1013.8
20260506221629 52 12 5.0 10.0 0.00 0.01 0.00 79 1013.8
20260506221125 52 355 4.0 9.0 0.00 0.01 0.00 80 1013.7
20260506220628 52 35 4.0 9.0 0.00 0.01 0.00 79 1013.7
20260506220127 53 348 5.0 11.0 0.00 0.01 0.00 79 1013.7
20260506215628 53 354 6.0 11.0 0.00 0.01 0.01 79 1013.6
20260506215125 53 335 5.0 11.0 0.00 0.01 0.01 79 1013.6
20260506214626 53 358 5.0 9.0 0.00 0.01 0.01 80 1013.5
20260506214123 53 339 6.0 10.0 0.00 0.01 0.01 80 1013.5
20260506213624 53 295 6.0 11.0 0.00 0.01 0.01 80 1013.5
20260506213122 53 343 5.0 11.0 0.00 0.01 0.01 80 1013.5
20260506212623 53 345 4.0 10.0 0.00 0.01 0.01 80 1013.5
20260506212122 53 310 3.0 8.0 0.00 0.01 0.01 80 1013.5
20260506211621 53 343 3.0 7.0 0.00 0.01 0.01 79 1013.4
20260506211120 53 325 4.0 8.0 0.00 0.01 0.01 79 1013.3
20260506210622 53 5 3.0 8.0 0.00 0.01 0.01 78 1013.3
20260506210120 53 325 3.0 5.0 0.00 0.01 0.01 77 1013.3
20260506205658 53 317 3.0 5.0 0.00 0.01 0.01 77 1013.2
20260506204619 53 350 5.0 12.0 0.00 0.01 0.01 75 1013.3
20260506204116 53 325 5.0 10.0 0.00 0.01 0.01 74 1013.3
20260506203613 53 318 4.0 10.0 0.00 0.01 0.01 73 1013.3
20260506203115 53 358 3.0 7.0 0.00 0.01 0.01 72 1013.2
20260506202615 53 359 4.0 8.0 0.00 0.01 0.01 71 1013.1
20260506202116 53 354 3.0 8.0 0.00 0.01 0.01 72 1013.1
20260506201617 53 335 3.0 7.0 0.00 0.01 0.01 72 1013.0
20260506201113 53 318 3.0 7.0 0.00 0.01 0.01 72 1013.0
20260506200613 53 350 2.0 4.0 0.00 0.01 0.01 74 1013.0
20260506200220 53 19 1.0 3.0 0.00 0.01 0.01 74 1013.1
20260506194606 53 23 4.0 9.0 0.00 0.01 0.01 75 1013.0
20260506194106 53 31 3.0 6.0 0.00 0.01 0.01 75 1013.0
20260506193606 53 27 2.0 4.0 0.00 0.01 0.01 75 1013.1
20260506193106 53 27 1.0 4.0 0.00 0.01 0.01 75 1013.0
20260506192605 53 62 1.0 4.0 0.00 0.01 0.01 75 1012.9
20260506192105 53 346 1.0 4.0 0.00 0.01 0.01 75 1012.8
20260506191633 53 64 2.0 3.0 0.00 0.01 0.01 75 1012.7
20260506190602 53 60 2.0 3.0 0.00 0.01 0.01 75 1012.6
20260506185603 53 79 1.0 2.0 0.00 0.01 0.01 74 1012.5
20260506185103 53 79 1.0 2.0 0.00 0.01 0.01 73 1012.4
20260506184559 53 79 1.0 3.0 0.00 0.01 0.01 72 1012.2
20260506184102 53 78 2.0 3.0 0.00 0.01 0.01 72 1012.2
20260506183600 53 79 2.0 3.0 0.00 0.01 0.01 73 1012.1
20260506183102 53 79 2.0 3.0 0.00 0.01 0.01 73 1012.1
20260506182601 54 68 1.0 3.0 0.00 0.01 0.01 73 1012.0
20260506182059 53 59 1.0 2.0 0.00 0.01 0.01 72 1012.0
20260506181600 54 59 2.0 3.0 0.00 0.01 0.01 72 1011.9
20260506181103 54 59 2.0 4.0 0.00 0.01 0.01 72 1011.8
20260506180557 54 77 2.0 4.0 0.00 0.01 0.01 72 1011.8
20260506180059 54 77 2.0 3.0 0.00 0.01 0.01 72 1011.8
20260506175635 53 58 2.0 3.0 0.00 0.01 0.01 72 1011.7
20260506174553 54 58 1.0 2.0 0.00 0.01 0.01 73 1011.5
20260506174052 54 58 1.0 4.0 0.00 0.01 0.01 74 1011.5
20260506173554 54 58 2.0 4.0 0.00 0.01 0.01 73 1011.4
20260506173052 54 65 1.0 3.0 0.00 0.01 0.01 74 1011.4
20260506172550 54 56 1.0 3.0 0.00 0.01 0.01 73 1011.3
20260506172051 54 52 2.0 3.0 0.00 0.01 0.01 73 1011.3
20260506171549 54 69 2.0 6.0 0.00 0.01 0.01 73 1011.2
20260506171117 54 70 2.0 6.0 0.00 0.01 0.01 73 1011.2
20260506170046 54 34 4.0 7.0 0.00 0.01 0.01 72 1011.1
20260506165552 54 76 4.0 8.0 0.00 0.01 0.01 71 1011.2
20260506165054 54 48 5.0 8.0 0.00 0.01 0.01 70 1011.1
20260506164622 54 62 6.0 10.0 0.00 0.01 0.01 70 1011.1
20260506163548 55 57 7.0 13.0 0.00 0.01 0.01 69 1011.2
20260506163121 55 62 8.0 13.0 0.00 0.01 0.01 67 1011.1
20260506162045 55 67 6.0 13.0 0.00 0.01 0.01 66 1011.1
20260506161547 55 347 5.0 11.0 0.00 0.01 0.01 69 1011.1
20260506161047 55 29 5.0 11.0 0.00 0.01 0.01 68 1011.1
20260506160543 55 33 5.0 11.0 0.00 0.01 0.01 68 1011.1
20260506160046 55 27 5.0 9.0 0.00 0.01 0.01 70 1011.2
20260506155542 55 71 5.0 10.0 0.00 0.01 0.01 68 1011.2
20260506155059 55 9 5.0 10.0 0.00 0.01 0.01 68 1011.1
20260506154621 55 308 7.0 10.0 0.00 0.01 0.01 68 1011.1
20260506153541 55 22 7.0 14.0 0.00 0.01 0.01 68 1011.1
20260506153048 55 71 6.0 12.0 0.00 0.01 0.01 69 1011.1
20260506152543 55 54 6.0 12.0 0.00 0.01 0.01 69 1011.0
20260506152059 55 51 6.0 12.0 0.00 0.01 0.01 69 1011.1
20260506151541 55 75 6.0 13.0 0.00 0.01 0.01 69 1011.0
20260506151042 55 93 7.0 13.0 0.00 0.01 0.01 69 1011.1
20260506150543 55 50 6.0 13.0 0.00 0.01 0.01 68 1011.1
20260506150042 55 28 6.0 13.0 0.00 0.01 0.01 69 1011.1
20260506145541 55 29 6.0 12.0 0.00 0.01 0.01 69 1011.0
20260506145047 55 47 6.0 12.0 0.00 0.01 0.01 69 1011.0
20260506144539 55 251 6.0 12.0 0.00 0.01 0.01 69 1011.0
20260506144113 55 41 6.0 12.0 0.00 0.01 0.01 69 1011.0
20260506143039 55 330 7.0 17.0 0.00 0.01 0.01 67 1011.0
20260506142541 55 4 7.0 15.0 0.00 0.01 0.01 66 1010.9
20260506142045 56 61 8.0 18.0 0.00 0.01 0.01 66 1010.9
20260506141539 56 67 9.0 18.0 0.00 0.01 0.01 65 1010.9
20260506141039 56 87 8.0 12.0 0.00 0.01 0.01 65 1010.8
20260506140537 56 46 8.0 18.0 0.00 0.01 0.01 62 1010.8
20260506140039 57 25 10.0 18.0 0.00 0.01 0.01 63 1010.8
20260506135538 57 335 10.0 18.0 0.00 0.01 0.01 60 1010.8
20260506135043 58 33 9.0 18.0 0.00 0.01 0.01 58 1010.7
20260506134617 58 28 9.0 16.0 0.00 0.01 0.01 58 1010.6
20260506133537 57 5 11.0 21.0 0.00 0.01 0.01 61 1010.6
20260506133038 57 345 10.0 20.0 0.00 0.01 0.01 62 1010.7
20260506132538 56 7 10.0 16.0 0.00 0.01 0.01 63 1010.6
20260506132042 56 354 8.0 16.0 0.00 0.01 0.01 64 1010.5
20260506131656 56 53 7.0 15.0 0.00 0.01 0.01 68 1010.5
20260506130114 56 6 6.0 14.0 0.00 0.01 0.01 71 1010.5
20260506125037 56 6 8.0 14.0 0.00 0.01 0.01 72 1010.5
20260506124538 56 357 8.0 15.0 0.00 0.01 0.01 72 1010.5
20260506124039 55 28 8.0 15.0 0.00 0.01 0.01 72 1010.5
20260506123539 55 357 9.0 15.0 0.00 0.01 0.01 72 1010.4
20260506123040 55 357 8.0 15.0 0.00 0.01 0.01 72 1010.4
20260506122536 55 27 8.0 15.0 0.00 0.01 0.01 72 1010.4
20260506122035 55 16 9.0 16.0 0.00 0.01 0.01 73 1010.3
20260506121538 55 1 9.0 17.0 0.00 0.01 0.01 74 1010.3
20260506121111 55 14 8.0 17.0 0.00 0.01 0.01 75 1010.3
20260506120037 55 314 9.0 17.0 0.00 0.01 0.01 75 1010.3
20260506115532 55 2 9.0 17.0 0.00 0.01 0.01 75 1010.3
20260506115117 55 335 9.0 16.0 0.00 0.01 0.01 77 1010.2
20260506114108 56 325 10.0 17.0 0.00 0.01 0.01 76 1010.4
20260506113035 56 10 9.0 18.0 0.00 0.01 0.01 76 1010.3
20260506112532 56 347 10.0 17.0 0.00 0.01 0.01 76 1010.3
20260506112032 56 6 10.0 18.0 0.00 0.01 0.01 75 1010.3
20260506111537 56 8 11.0 19.0 0.00 0.01 0.01 75 1010.3
20260506111033 56 3 10.0 19.0 0.00 0.01 0.01 75 1010.2
20260506110545 57 352 8.0 15.0 0.00 0.01 0.01 73 1010.3
20260506110034 57 325 7.0 15.0 0.00 0.01 0.01 74 1010.1
20260506105530 56 310 8.0 15.0 0.00 0.01 0.01 72 1010.3
20260506105033 56 339 10.0 18.0 0.00 0.01 0.01 71 1010.0
20260506104534 56 349 12.0 19.0 0.00 0.01 0.01 71 1010.1
20260506104034 57 31 11.0 19.0 0.00 0.01 0.01 70 1010.1
20260506103532 57 335 9.0 17.0 0.00 0.01 0.01 69 1010.2
20260506103031 57 31 9.0 15.0 0.00 0.01 0.01 69 1010.0
20260506102531 58 14 9.0 18.0 0.00 0.01 0.01 69 1009.9
20260506102034 58 21 9.0 18.0 0.00 0.01 0.01 69 1009.9
20260506101533 58 330 10.0 18.0 0.00 0.01 0.01 69 1010.0
20260506101038 58 358 9.0 18.0 0.00 0.01 0.01 69 1010.0
20260506100534 58 112 9.0 15.0 0.00 0.01 0.01 70 1009.9
20260506100033 58 24 9.0 19.0 0.00 0.01 0.01 71 1009.8
20260506095530 58 351 9.0 20.0 0.00 0.01 0.01 71 1009.9
20260506095032 57 349 10.0 20.0 0.00 0.01 0.01 70 1009.8
20260506094530 57 12 9.0 15.0 0.00 0.01 0.01 71 1009.8
20260506094033 57 321 10.0 17.0 0.00 0.01 0.01 71 1009.8
20260506093531 57 4 11.0 20.0 0.00 0.01 0.01 71 1010.0
20260506093031 57 21 10.0 20.0 0.00 0.01 0.01 72 1009.9
20260506092532 57 357 11.0 20.0 0.00 0.01 0.01 73 1009.8
20260506092028 57 19 11.0 20.0 0.00 0.01 0.01 73 1009.7
20260506091529 56 33 9.0 16.0 0.00 0.01 0.01 77 1009.7
20260506091030 56 339 9.0 16.0 0.00 0.01 0.01 81 1009.6
20260506090529 56 330 9.0 16.0 0.00 0.01 0.01 81 1009.5
20260506090027 56 335 9.0 16.0 0.00 0.01 0.01 82 1009.7
20260506085527 55 8 8.0 16.0 0.00 0.01 0.01 82 1009.6
20260506085026 55 1 8.0 16.0 0.00 0.01 0.01 81 1009.6
20260506084524 55 16 8.0 16.0 0.00 0.01 0.01 82 1009.6
20260506084027 55 285 8.0 16.0 0.00 0.01 0.01 83 1009.5
20260506083526 55 335 8.0 18.0 0.00 0.01 0.01 84 1009.5
20260506083028 54 26 8.0 18.0 0.00 0.01 0.01 84 1009.6
20260506082526 54 24 8.0 16.0 0.00 0.01 0.01 85 1009.4
20260506082026 54 312 9.0 17.0 0.00 0.01 0.01 85 1009.4
20260506081525 54 10 9.0 17.0 0.00 0.01 0.01 86 1009.5
20260506081058 54 330 10.0 19.0 0.00 0.01 0.01 87 1009.5